Date String (YYYY-MM-DD hh:mm:ss) UTC,Instrument flags,absolute air pressure of the measurement (hPa),sample flow rate (lpm),inlet stack bypass flow (lpm),air temperature of the measurement (°C),ambient temperature measured by the external sensor (°C),aerosol sample conditioner tube jacket temperature (°C),OPC LED temperature (°C),internal box temperature (°C),relative humidity of the measurement (%),span deviation,mass concentration of particles derived from Lorenz-Mie calculation of OPC scattering (μg/m³),mass concentration of particles derived from Lorenz-Mie calculation of OPC scattering (μg/m³),mass concentration of particles derived from Lorenz-Mie calculation of OPC scattering (μg/m³)
DateTimeUTC,F1_M11,P_M11,Q1_M11,Q2_M11,T1_M11,T2_M11,T3_M11,T4_M11,T5_M11,U1_M11,ZSPAN_M11,X2_M11,X0_M11,X1_M11
2024-01-12 07:00:00,SystemResetWarning,0818.3,5.01,000.00,019.1,018.8,000.0,027.3,020.1,7.3,0000.0,0004.80,0009.53,0004.00
2024-01-12 07:01:00,SystemResetWarning,0818.4,5.02,000.00,019.0,018.5,000.0,027.4,020.0,7.3,0000.0,0004.74,0009.42,0003.97
2024-01-12 07:02:00,SystemResetWarning,0818.3,4.99,000.00,019.0,018.1,000.0,027.4,020.0,7.3,0000.0,0004.67,0009.31,0003.96
2024-01-12 07:03:00,SystemResetWarning,0818.3,4.99,000.00,018.9,017.8,000.0,027.4,020.0,7.3,0000.0,0004.65,0009.35,0003.95
2024-01-12 07:04:00,SystemResetWarning,0818.3,5.00,000.00,018.9,017.7,000.0,027.4,020.1,7.3,0000.0,0004.59,0009.71,0003.93
2024-01-12 07:05:00,SystemResetWarning,0818.3,5.02,000.00,019.0,018.2,000.0,027.3,020.5,7.3,0000.0,0004.55,0009.39,0003.90
2024-01-12 07:06:00,SystemResetWarning,0818.3,5.00,000.00,019.1,019.0,000.0,027.3,020.9,7.3,0000.0,0004.46,0008.84,0003.88
2024-01-12 07:07:00,SystemResetWarning,0818.2,5.00,000.00,019.2,019.2,000.0,027.3,020.7,7.2,0000.0,0004.42,0008.79,0003.86
2024-01-12 07:08:00,SystemResetWarning,0818.2,4.99,000.00,019.1,019.0,000.0,027.3,020.2,7.2,0000.0,0004.45,0009.73,0003.87
2024-01-12 07:09:00,SystemResetWarning,0818.1,4.99,000.00,019.1,018.6,000.0,027.3,020.0,7.2,0000.0,0004.44,0010.04,0003.87
2024-01-12 07:10:00,SystemResetWarning,0818.1,5.01,000.00,019.0,018.3,000.0,027.4,020.0,7.2,0000.0,0004.43,0010.04,0003.87
2024-01-12 07:11:00,SystemResetWarning,0818.1,5.00,000.00,019.0,018.0,000.0,027.4,020.0,7.2,0000.0,0004.43,0010.51,0003.88
2024-01-12 07:12:00,SystemResetWarning,0818.1,5.00,000.00,018.9,017.7,000.0,027.4,020.0,7.2,0000.0,0004.47,0010.73,0003.89
2024-01-12 07:13:00,SystemResetWarning,0818.0,5.01,000.00,018.9,017.9,000.0,027.4,020.3,7.2,0000.0,0004.47,0010.65,0003.90
2024-01-12 07:14:00,SystemResetWarning,0818.1,5.00,000.00,019.1,018.6,000.0,027.3,020.8,7.2,0000.0,0004.47,0010.62,0003.91
2024-01-12 07:15:00,SystemResetWarning,0818.0,5.00,000.00,019.2,019.0,000.0,027.4,020.7,7.2,0000.0,0004.52,0010.06,0003.94
2024-01-12 07:16:00,SystemResetWarning,0818.0,4.99,000.00,019.1,018.8,000.0,027.3,020.1,7.2,0000.0,0004.56,0010.71,0003.95
2024-01-12 07:17:00,SystemResetWarning,0818.0,4.99,000.00,019.0,018.5,000.0,027.4,020.0,7.2,0000.0,0004.60,0012.25,0003.97
2024-01-12 07:18:00,SystemResetWarning,0818.0,5.00,000.00,019.0,018.2,000.0,027.4,020.0,7.1,0000.0,0004.63,0013.06,0003.97
2024-01-12 07:19:00,SystemResetWarning,0818.0,5.00,000.00,018.9,017.9,000.0,027.4,020.0,7.2,0000.0,0004.63,0013.51,0003.96
2024-01-12 07:20:00,SystemResetWarning,0817.9,5.00,000.00,018.9,017.6,000.0,027.4,020.0,7.2,0000.0,0004.61,0012.95,0003.96
2024-01-12 07:21:00,SystemResetWarning,0817.9,5.01,000.00,018.9,017.8,000.0,027.4,020.3,7.2,0000.2,0004.60,0013.22,0003.96
2024-01-12 07:22:00,SystemResetWarning,0818.0,5.01,000.00,019.0,018.6,000.0,027.3,020.7,7.1,0001.4,0004.60,0013.54,0003.95
2024-01-12 07:23:00,SystemResetWarning,0818.0,5.00,000.00,019.1,018.9,000.0,027.3,020.6,7.1,0002.9,0004.59,0013.19,0003.97
2024-01-12 07:24:00,SystemResetWarning,0817.9,4.99,000.00,019.1,018.8,000.0,027.3,020.1,7.1,0003.6,0004.67,0013.63,0003.98
2024-01-12 07:25:00,SystemResetWarning,0817.9,5.00,000.00,019.0,018.4,000.0,027.4,020.0,7.1,0003.6,0004.69,0013.87,0003.98
2024-01-12 07:26:00,SystemResetWarning,0817.9,5.00,000.00,019.0,018.2,000.0,027.4,020.0,7.2,0003.7,0004.71,0014.00,0003.98
2024-01-12 07:27:00,SystemResetWarning,0818.0,5.01,000.00,018.9,017.9,000.0,027.4,020.0,7.1,0004.4,0004.67,0014.02,0003.99
2024-01-12 07:28:00,SystemResetWarning,0818.0,5.00,000.00,018.9,017.8,000.0,027.4,020.0,7.1,0001.6,0004.67,0012.60,0004.00
2024-01-12 07:29:00,SystemResetWarning,0818.0,5.00,000.00,018.9,017.8,000.0,027.4,020.1,7.1,0000.0,0004.72,0011.71,0004.02
2024-01-12 07:30:00,SystemResetWarning,0817.9,5.01,000.00,019.0,018.3,000.0,027.4,020.5,7.1,0001.7,0004.70,0010.99,0004.04
2024-01-12 07:31:00,SystemResetWarning,0818.0,4.99,000.00,019.1,019.0,000.0,027.4,020.8,7.0,0002.6,0004.71,0010.52,0004.06
2024-01-12 07:32:00,SystemResetWarning,0818.0,5.00,000.00,019.1,019.0,000.0,027.3,020.5,7.0,0000.0,0004.73,0010.89,0004.07
2024-01-12 07:33:00,SystemResetWarning,0817.9,4.99,000.00,019.1,018.8,000.0,027.3,020.1,7.0,0000.0,0004.76,0010.61,0004.09
2024-01-12 07:34:00,SystemResetWarning,0817.9,5.00,000.00,019.0,018.6,000.0,027.3,020.0,7.0,0000.0,0004.76,0010.32,0004.09
2024-01-12 07:35:00,SystemResetWarning,0817.9,5.00,000.00,019.0,018.3,000.0,027.3,020.0,7.0,0000.0,0004.74,0010.46,0004.09
2024-01-12 07:36:00,SystemResetWarning,0817.9,5.00,000.00,018.9,018.1,000.0,027.4,020.0,7.0,0001.1,0004.71,0010.18,0004.09
2024-01-12 07:37:00,SystemResetWarning,0817.9,5.00,000.00,018.9,018.0,000.0,027.4,020.0,7.1,0004.8,0004.71,0010.39,0004.09
2024-01-12 07:38:00,SystemResetWarning,0817.9,5.00,000.00,018.9,017.8,000.0,027.4,020.0,7.1,0003.9,0004.71,0010.15,0004.09
2024-01-12 07:39:00,SystemResetWarning,0818.0,4.99,000.00,018.8,017.8,000.0,027.4,020.0,7.1,0005.3,0004.68,0010.11,0004.08
2024-01-12 07:40:00,SystemResetWarning,0817.9,5.00,000.00,018.8,017.7,000.0,027.4,020.0,7.0,0005.0,0004.61,0010.01,0004.06
2024-01-12 07:41:00,SystemResetWarning,0817.8,5.01,000.00,018.8,017.8,000.0,027.3,020.2,7.0,0003.0,0004.60,0009.61,0004.04
2024-01-12 07:42:00,SystemResetWarning,0817.8,5.01,000.00,018.9,018.5,000.0,027.3,020.6,7.0,0004.1,0004.59,0009.47,0004.03
2024-01-12 07:43:00,SystemResetWarning,0817.8,5.00,000.00,019.1,019.1,000.0,027.3,020.8,6.9,0001.1,0004.55,0008.61,0004.01
2024-01-12 07:44:00,SystemResetWarning,0817.8,5.00,000.00,019.1,019.0,000.0,027.3,020.3,6.9,0000.0,0004.52,0008.76,0004.00
2024-01-12 07:45:00,SystemResetWarning,0817.8,4.99,000.00,019.0,018.7,000.0,027.3,020.0,6.8,0000.0,0004.54,0008.81,0003.99
2024-01-12 07:46:00,SystemResetWarning,0817.8,5.00,000.00,019.0,018.5,000.0,027.3,020.0,6.8,0000.8,0004.55,0008.77,0003.98
2024-01-12 07:47:00,SystemResetWarning,0817.8,5.01,000.00,018.9,018.3,000.0,027.3,020.0,6.8,0000.0,0004.53,0008.63,0003.97
2024-01-12 07:48:00,SystemResetWarning,0817.7,5.00,000.00,018.9,018.1,000.0,027.3,020.0,6.8,0000.0,0004.48,0009.25,0003.95
2024-01-12 07:49:00,SystemResetWarning,0817.7,4.99,000.00,018.9,018.0,000.0,027.3,020.0,6.8,0000.0,0004.44,0009.18,0003.93
2024-01-12 07:50:00,SystemResetWarning,0817.7,4.99,000.00,018.9,017.8,000.0,027.3,020.0,6.8,0000.0,0004.44,0009.35,0003.93
2024-01-12 07:51:00,SystemResetWarning,0817.7,5.00,000.00,018.8,017.8,000.0,027.3,020.0,6.8,0002.7,0004.45,0009.42,0003.91
2024-01-12 07:52:00,SystemResetWarning,0817.7,5.01,000.00,018.8,017.7,000.0,027.3,020.0,6.8,0003.7,0004.43,0009.70,0003.90
2024-01-12 07:53:00,SystemResetWarning,0817.7,5.02,000.00,018.9,018.0,000.0,027.3,020.3,6.9,0001.3,0004.42,0009.72,0003.88
2024-01-12 07:54:00,SystemResetWarning,0817.7,5.00,000.00,019.0,018.7,000.0,027.3,020.7,6.9,0003.0,0004.43,0009.78,0003.87
2024-01-12 07:55:00,SystemResetWarning,0817.8,5.00,000.00,019.1,019.0,000.0,027.3,020.7,6.8,0002.9,0004.43,0009.51,0003.87
2024-01-12 07:56:00,SystemResetWarning,0817.7,5.00,000.00,019.1,018.8,000.0,027.3,020.2,6.8,0002.5,0004.39,0009.75,0003.85
2024-01-12 07:57:00,SystemResetWarning,0817.6,4.99,000.00,019.0,018.6,000.0,027.3,020.0,6.9,0001.9,0004.36,0009.86,0003.84
2024-01-12 07:58:00,SystemResetWarning,0817.7,5.00,000.00,018.9,018.4,000.0,027.3,020.0,6.9,0002.6,0004.34,0009.79,0003.84
2024-01-12 07:59:00,SystemResetWarning,0817.7,5.01,000.00,018.9,018.2,000.0,027.3,020.0,7.0,0002.9,0004.34,0009.00,0003.84
